Simultaneous Nadir Overpasses (SNOs) Predictions

Prediction of SNOs between AURA and NPP Satellite Orbit:

Table of predicted SNOs for the next 14.0 days since TLE Epoch: 10/8/2016
Index Date (AURA) Time (AURA) Lat,Lon (AURA) SZA (AURA ) Date (NPP) Time (NPP) Lat,Lon (NPP) SZA (NPP ) Distance(km) Time Diff (sec)
1 10/10/2016 02:51:34 -79.49,-146.29 81.49 10/10/2016 02:51:24 -79.50,-146.18 81.51 2.37 10
2 10/10/2016 03:40:54 79.71, 22.93 98.21 10/10/2016 03:42:02 79.71, 22.97 98.16 0.73 68
3 10/12/2016 18:18:41 79.28, 160.55 99.74 10/12/2016 18:17:41 79.28, 160.59 99.78 0.72 60
4 10/12/2016 19:08:01 -79.56, -29.95 80.63 10/12/2016 19:08:18 -79.56, -29.87 80.65 1.63 17
5 10/15/2016 10:35:07 79.38, -82.94 100.56 10/15/2016 10:34:34 79.38, -82.90 100.58 1.13 33
6 10/15/2016
